Location: Keppel Henge
(44.7900°N, 80.9447°W)
Time: 06:22:06
(UTC-05:00)

Envisat - Pass Details

Date: 09 October 2017
Orbit: 764 x 766 km, 98.2° (Epoch: 13 December)

Event Time Altitude Azimuth Distance (km) Brightness Sun altitude
Exits shadow 21:44:43 43° 251° (WSW) 1,074 3.9 -31.3°
Maximum altitude 21:45:03 43° 262° (W) 1,065 4.0 -31.4°
Drops below altitude 10° 21:49:54 10° 334° (NNW) 2,314 6.0 -32.2°
Sets 21:52:20 0° 341° (NNW) 3,245 6.8 -32.6°
